Wind_Speed
43 41 40 39 38 37 35 34 34 34 34 35 37 38 38 39 39 40 41 40 39 38 38 37 36 36 36 37 40 43 46 48 50 51 51 50 49 49 47 45 43 43 42 42 40 40 39 39 39 39 39 40 40 40 38 35 34 32 30 29 28 26 24 23 22 20 20 18 16 15 13 12 10 11 9 7 10 13 14 16 17 23 29 30 31 32 33 35
46 45 43 42 41 40 39 38 36 36 35 36 37 39 40 41 41 42 42 43 42 42 41 40 39 39 38 38 39 41 43 46 49 51 53 53 52 51 50 47 46 45 43 42 41 40 41 41 41 40 40 41 41 40 39 37 35 33 31 30 30 29 27 25 24 22 22 21 18 16 15 12 11 10 10 9 11 15 17 18 20 26 27 27 29 31 32 34
49 48 47 46 45 44 43 42 40 39 38 37 38 39 41 42 43 43 44 45 45 45 44 43 42 42 41 40 40 40 42 44 47 50 53 54 54 53 52 50 49 47 45 44 42 41 42 42 41 41 41 41 41 41 40 38 36 34 32 31 31 30 29 28 26 25 24 22 20 19 17 15 12 10 11 10 12 16 18 18 20 22 22 26 29 30 32 34
51 50 50 49 48 47 46 45 44 43 41 40 40 40 41 43 45 46 46 46 47 47 47 46 45 45 44 43 42 42 42 44 46 49 51 54 55 55 54 53 52 50 48 46 44 44 43 43 42 41 41 42 42 42 41 39 37 35 33 32 32 31 30 29 28 27 26 24 22 21 20 17 15 13 13 12 12 15 17 17 18 18 21 26 28 29 32 33
52 52 52 51 51 50 50 49 48 47 45 44 43 42 42 43 45 47 48 48 48 49 49 49 48 48 47 46 46 45 44 44 45 47 50 52 54 55 55 55 54 53 51 49 48 46 45 44 43 42 42 43 43 42 41 39 38 37 35 33 32 32 31 30 29 29 28 26 24 23 22 20 17 16 15 14 13 15 17 17 17 17 20 25 28 29 30 32
53 53 53 53 53 53 53 52 52 51 49 48 47 46 45 44 46 48 50 50 50 51 51 52 51 50 49 49 49 48 47 46 46 47 49 51 53 54 55 56 56 55 53 52 51 49 48 47 45 44 43 44 43 42 41 41 39 38 36 34 33 32 32 31 30 30 30 28 26 25 24 21 19 17 16 15 15 16 16 17 17 17 19 24 27 29 29 30
53 54 55 55 55 55 55 55 55 54 53 52 51 50 48 47 47 48 50 52 53 53 53 54 53 53 53 52 52 51 50 49 49 48 48 50 52 53 55 56 57 57 56 55 54 52 51 49 48 46 45 45 44 42 42 42 41 40 38 35 35 34 33 33 32 31 31 30 28 26 26 24 21 17 16 17 16 17 17 18 18 17 18 22 26 28 29 29
52 54 55 56 56 57 57 57 57 57 56 56 55 54 52 51 50 50 51 53 54 55 55 56 56 55 55 55 54 54 53 52 51 50 49 50 51 52 54 55 57 57 57 57 57 56 54 52 50 49 47 46 44 44 44 43 42 42 40 38 37 37 37 36 35 33 32 31 30 28 27 25 22 19 18 18 18 18 19 19 19 19 19 22 25 28 29 28
54 54 55 56 57 58 59 59 59 60 59 59 58 58 57 55 54 53 53 53 55 57 58 58 58 57 57 58 58 57 56 55 53 52 51 51 52 53 54 55 56 56 57 58 59 58 56 54 52 51 49 48 47 47 46 46 44 43 42 40 40 40 40 39 37 35 33 32 32 30 28 26 23 21 20 20 20 19 20 21 21 22 22 24 25 26 28 27
56 57 57 57 58 59 60 61 61 62 62 62 61 61 60 60 59 58 56 56 56 58 59 60 60 60 59 60 60 60 59 58 56 55 54 54 54 54 54 55 55 56 57 59 59 59 58 56 55 54 52 51 50 50 49 48 45 45 44 43 43 42 42 41 39 37 35 34 33 32 30 29 26 24 22 22 22 21 22 22 23 24 24 25 24 25 27 26
57 58 59 60 60 60 60 61 63 64 64 64 64 64 64 63 63 62 61 60 59 59 60 62 62 62 62 62 62 63 62 61 59 57 57 57 56 55 55 56 56 56 57 59 59 59 58 58 57 56 55 54 53 52 51 50 48 48 47 46 44 44 44 43 41 39 37 35 34 33 32 31 29 27 25 24 24 24 23 23 23 25 25 25 23 23 26 25
58 59 60 61 62 62 62 62 63 65 66 66 67 67 67 66 66 66 65 64 63 62 62 63 64 64 64 64 64 65 64 63 62 60 59 60 59 58 57 57 57 57 58 59 58 58 59 58 58 58 57 56 56 55 54 53 52 51 50 49 47 46 46 46 43 40 39 37 36 34 33 33 32 29 27 26 26 25 24 24 24 25 26 25 24 23 24 23
56 59 60 61 62 63 64 64 65 66 67 68 69 69 70 70 70 69 69 68 67 66 65 64 65 65 66 66 66 67 66 65 65 63 62 62 62 60 60 59 59 59 58 58 57 58 58 59 60 59 58 58 58 58 57 56 55 54 53 52 50 48 48 47 45 42 41 39 37 36 35 34 33 31 29 28 27 26 26 26 26 26 26 25 24 22 23 22
52 56 59 61 62 63 65 66 67 68 68 69 70 71 72 73 73 73 72 72 71 70 69 67 67 67 67 68 68 68 68 67 67 66 65 65 64 63 62 61 61 60 59 58 57 57 59 60 60 59 59 59 59 59 59 58 58 57 56 54 52 51 49 48 46 44 43 41 39 38 37 35 34 33 32 30 29 28 28 28 27 26 25 25 24 22 22 20
48 52 55 58 60 63 65 67 68 70 70 71 72 73 74 75 76 76 75 75 74 74 73 71 70 69 69 69 70 70 70 69 68 68 68 67 67 66 65 64 63 63 61 59 58 58 58 60 60 60 60 59 59 60 60 60 60 59 58 57 55 53 51 49 48 46 45 42 41 40 39 37 36 36 34 32 30 29 29 29 28 27 26 26 24 21 20 18
44 47 50 52 56 60 64 67 69 72 73 73 74 75 75 76 77 78 79 78 78 77 77 75 74 72 70 71 71 71 71 71 70 69 69 69 70 69 68 66 65 65 63 62 60 59 58 59 60 60 60 60 60 60 61 61 62 61 61 59 57 55 52 51 49 48 46 45 44 42 41 39 38 38 37 35 33 31 30 30 29 28 27 26 24 21 19 17
43 44 46 47 50 54 60 65 69 73 75 77 76 77 78 78 79 80 81 81 81 81 80 78 77 76 74 73 73 73 73 73 72 71 71 71 71 72 71 69 68 67 65 64 62 61 59 60 60 60 60 60 60 60 60 61 63 63 63 61 59 56 53 52 50 49 49 47 46 44 43 41 40 40 39 37 35 33 32 31 30 28 27 25 23 20 19 16
44 44 44 44 45 48 52 59 65 71 76 79 79 79 80 81 81 81 82 83 83 84 83 82 81 80 78 76 75 75 74 74 74 74 73 72 72 73 73 72 70 69 68 66 65 63 62 62 61 60 60 60 60 59 60 62 64 63 63 62 60 58 56 54 52 52 51 49 48 47 45 44 42 41 41 39 37 35 34 32 31 29 27 25 23 20 18 16
47 46 45 44 44 44 46 52 58 65 72 77 81 82 82 83 83 83 83 84 85 86 86 85 84 83 81 80 79 77 76 75 75 75 75 75 74 74 75 74 73 72 70 69 67 66 65 64 63 61 61 61 61 61 61 63 63 63 63 62 60 60 59 57 55 54 53 52 50 49 47 45 44 43 42 41 39 37 35 34 32 30 28 26 23 21 18 16
51 49 47 45 43 43 43 46 52 57 64 71 78 82 84 85 85 86 86 86 87 88 88 88 87 86 85 84 82 80 78 77 77 77 76 76 76 75 75 75 75 74 73 72 70 69 67 66 65 64 64 63 63 62 62 62 61 61 62 61 60 62 61 58 56 55 54 53 51 49 47 47 46 44 43 41 39 38 36 34 33 30 28 26 24 21 19 17
55 52 49 46 43 42 41 43 48 52 57 63 71 77 83 86 87 87 88 88 88 89 90 90 90 89 88 86 85 83 81 80 79 78 78 78 77 77 76 76 76 76 75 75 73 71 69 68 68 68 67 65 64 63 63 62 60 60 60 59 59 62 63 60 57 56 54 54 52 50 49 48 47 45 44 42 40 38 37 35 33 31 29 26 24 22 20 18
60 56 52 48 44 42 40 41 45 48 52 57 62 69 76 83 87 89 89 90 90 90 91 91 92 92 90 89 88 86 84 83 81 80 80 79 79 79 78 78 77 77 77 76 75 73 71 71 72 71 69 67 66 65 65 63 60 59 59 58 59 63 64 61 58 56 55 54 53 52 52 50 49 46 44 43 41 39 37 35 33 32 30 27 24 23 21 20
63 59 55 50 44 41 40 40 43 45 48 52 55 60 67 76 83 88 89 90 91 92 92 92 93 93 93 92 91 88 87 87 85 83 82 81 81 80 80 79 78 78 77 77 77 75 74 75 75 74 72 70 69 67 67 65 61 59 58 58 60 65 65 62 60 57 55 55 53 53 53 51 49 47 46 44 42 40 38 36 34 33 31 28 26 24 22 20
65 61 57 51 45 41 38 38 41 44 46 48 51 55 60 67 75 83 88 91 92 93 93 93 93 94 95 95 93 91 90 90 88 86 84 83 83 82 81 80 80 79 78 78 77 77 77 78 77 75 73 72 70 68 67 65 63 60 58 59 62 65 65 64 61 57 55 55 54 52 52 51 49 49 47 45 43 41 39 37 35 34 33 30 27 25 23 21
66 62 59 53 45 41 38 37 40 43 44 45 48 52 56 60 66 74 83 89 92 93 94 94 94 94 95 95 95 94 94 93 90 89 87 86 85 83 82 82 81 80 79 78 78 77 78 79 78 77 75 73 71 70 68 67 64 62 60 61 63 65 66 65 62 58 55 55 54 52 51 51 50 49 47 45 44 42 40 39 36 35 34 31 29 27 25 23
68 64 61 54 45 40 37 35 38 41 42 44 46 50 53 56 60 66 74 82 89 92 93 94 95 95 95 95 96 97 97 95 93 91 90 88 87 85 84 83 82 81 80 79 78 78 79 79 79 79 77 76 74 72 71 69 67 65 64 65 66 67 67 65 62 59 56 53 52 51 49 49 49 48 46 45 44 43 41 39 38 36 35 33 32 30 27 25
69 65 62 56 45 38 36 35 36 39 42 44 46 48 51 54 57 61 66 74 82 88 92 93 95 95 95 95 96 97 98 97 95 94 93 91 90 88 86 85 84 82 81 80 79 79 79 80 80 80 79 77 76 74 73 71 69 68 69 69 69 69 68 66 62 59 57 53 50 49 48 47 48 47 46 46 44 42 41 40 39 37 36 35 34 32 29 28
71 66 62 56 46 38 34 34 35 37 40 44 46 46 49 51 54 58 62 67 74 82 88 91 94 95 95 95 96 97 98 99 98 97 96 94 92 90 88 87 85 83 82 81 80 80 80 80 81 80 79 78 78 77 76 73 71 71 72 71 71 71 70 67 63 60 58 54 49 48 47 46 46 46 44 43 42 41 41 40 39 38 37 36 35 33 32 30
73 67 63 56 46 38 33 32 33 35 39 43 45 46 47 49 52 56 59 63 68 73 80 87 91 94 95 95 96 96 98 99 100 100 99 96 94 92 90 88 86 84 83 82 82 82 81 81 81 80 80 80 80 80 78 75 74 75 75 72 72 72 71 68 64 61 59 54 50 49 47 45 45 45 41 39 39 41 42 42 41 39 38 37 36 35 34 32
73 68 63 56 46 38 33 31 31 34 37 41 44 45 46 47 49 53 57 61 65 67 72 80 87 90 93 94 95 96 97 99 100 101 100 98 96 93 92 90 88 86 85 84 84 83 83 82 82 82 82 81 81 81 80 78 78 79 77 75 74 74 72 68 64 63 59 55 52 49 47 45 44 43 39 38 40 41 42 43 43 41 39 39 39 37 35 34
73 68 63 54 44 37 33 30 30 32 35 38 42 44 45 45 46 49 54 58 62 64 67 73 79 85 90 93 95 96 98 99 100 100 99 99 97 96 95 93 91 89 87 87 86 85 85 84 84 83 82 81 81 81 80 79 80 81 80 78 77 76 74 70 66 64 60 56 54 50 47 45 43 43 40 40 42 41 40 42 44 44 43 42 42 40 38 36
73 69 63 53 43 36 32 29 29 30 32 35 39 42 44 44 45 47 50 54 58 62 65 67 72 79 85 90 93 96 98 99 99 98 98 98 98 98 97 96 94 91 90 89 88 88 87 86 85 85 84 83 82 82 81 80 81 82 82 81 79 78 76 72 68 66 61 58 56 52 48 46 43 43 43 43 43 41 41 42 44 46 46 45 44 42 40 38
73 69 63 51 42 35 31 28 28 28 29 32 35 39 43 45 45 46 48 50 54 58 63 66 70 74 80 86 90 94 97 98 98 97 97 97 98 99 99 98 97 94 93 92 91 90 88 88 87 87 86 85 84 83 82 82 81 82 83 83 81 80 78 74 70 67 63 61 60 55 50 48 45 45 46 46 45 44 45 46 47 48 47 47 46 44 42 41
74 69 61 50 41 35 30 27 26 26 27 29 33 37 42 45 46 46 46 48 50 54 60 65 69 72 76 81 86 92 95 97 98 97 96 96 97 98 99 100 99 97 96 94 94 93 91 90 90 88 87 86 86 85 84 83 82 83 84 84 83 82 80 76 73 70 66 64 63 59 54 51 49 48 49 50 49 48 48 48 49 48 48 47 46 45 43 42
74 68 59 48 40 34 29 25 24 24 26 29 32 36 41 44 45 45 46 47 48 50 55 60 65 69 73 77 82 87 92 95 96 96 96 95 96 97 98 99 100 100 99 98 97 96 94 93 92 90 89 88 87 86 85 85 85 85 86 85 85 83 81 78 76 73 70 68 67 63 59 55 53 53 53 53 52 51 51 50 49 49 47 46 46 46 45 44
73 67 56 46 39 33 28 24 22 23 25 29 32 35 38 42 44 45 46 47 47 48 51 55 58 63 68 72 76 80 85 90 92 93 94 95 95 96 97 99 100 101 101 101 100 99 98 97 94 92 91 91 90 88 87 88 88 88 87 86 85 84 82 80 79 76 73 71 70 67 64 61 58 58 57 55 54 52 51 51 50 49 47 45 46 47 47 47
73 65 54 45 39 32 27 23 21 22 25 28 32 34 36 39 43 45 46 47 47 48 50 51 52 55 60 65 71 75 78 82 87 90 92 94 95 96 97 98 100 101 102 103 103 102 102 100 98 96 94 93 92 90 90 91 91 89 87 86 86 85 85 83 81 79 76 74 73 72 69 66 63 61 59 56 54 52 50 50 49 47 46 46 47 47 48 48
73 63 51 44 38 32 26 22 20 21 23 27 30 32 34 37 40 44 46 47 47 47 48 48 47 48 51 57 63 69 72 75 80 84 89 92 94 96 97 98 100 101 102 103 104 104 104 103 101 100 98 97 95 93 92 93 93 91 89 87 87 87 87 85 83 82 79 77 76 75 73 70 66 64 61 58 55 53 51 49 48 46 45 46 47 48 48 48
73 62 50 44 38 31 25 21 19 19 22 25 28 30 33 35 37 41 44 46 47 47 47 46 45 44 46 50 55 60 66 70 73 78 83 88 93 96 97 99 100 101 102 103 104 105 106 106 105 104 102 101 98 96 95 95 94 93 91 90 89 89 88 87 86 84 82 80 78 78 77 74 69 66 63 61 58 55 53 50 49 47 47 47 48 49 49 49
72 61 51 44 37 31 24 20 17 17 19 22 25 28 31 33 34 36 40 44 47 48 47 47 45 44 44 46 49 53 58 63 67 72 77 82 88 93 95 97 98 99 101 102 103 105 106 107 107 107 107 105 103 101 98 97 96 95 94 92 91 91 89 88 88 86 85 83 81 81 81 77 72 69 66 63 59 57 55 53 51 50 49 49 49 49 50 51
72 61 52 45 38 31 24 19 16 16 17 19 23 26 28 30 32 34 37 41 45 48 48 47 47 46 44 45 47 49 53 56 61 66 71 76 81 85 89 93 96 98 100 101 103 105 107 107 108 109 109 109 107 105 102 100 99 97 96 95 93 92 91 90 89 87 86 86 84 84 83 79 75 72 68 65 62 59 57 55 54 53 52 52 52 51 51 52
72 62 54 46 39 32 24 18 15 14 15 17 20 24 27 29 31 33 34 36 40 44 46 47 47 47 46 46 47 48 50 52 57 61 65 69 73 78 83 88 93 97 99 101 103 105 106 107 108 109 110 111 110 109 105 103 102 100 99 97 95 94 93 91 90 88 87 87 86 86 85 82 78 75 71 68 65 62 60 58 56 55 55 54 54 53 53 53
73 63 55 48 40 33 25 19 14 13 13 15 18 21 24 27 28 29 30 32 36 40 44 47 48 49 49 49 49 49 51 53 55 57 59 62 67 72 78 83 88 94 98 101 103 104 105 106 108 110 111 111 111 111 109 106 105 104 102 100 97 96 95 93 92 91 89 88 88 87 87 84 81 78 74 70 67 65 63 61 59 58 58 57 56 55 54 55
74 64 56 49 41 34 27 20 14 12 12 13 16 19 21 23 24 27 29 31 33 37 40 44 48 49 50 50 50 51 52 53 54 55 57 59 63 67 72 78 83 89 95 99 102 104 104 104 107 110 111 111 111 111 111 109 108 107 105 103 100 98 96 95 94 94 92 90 89 88 88 86 84 81 77 73 70 68 66 64 62 61 61 60 58 56 56 57
76 66 58 51 43 36 29 22 16 12 10 11 13 16 19 21 23 26 28 30 31 33 36 41 45 48 50 51 51 52 53 53 54 55 56 58 61 63 67 73 78 84 90 95 98 101 101 102 105 108 110 110 110 111 111 110 110 110 108 106 104 101 99 98 97 96 94 92 91 89 88 87 86 83 80 76 74 72 69 67 65 64 63 62 61 58 57 58
77 68 60 52 44 38 31 24 19 13 10 10 12 14 17 20 22 24 26 27 29 31 34 37 40 43 46 49 50 51 52 53 54 55 56 57 59 61 64 68 73 78 82 86 91 95 98 100 103 106 109 109 109 110 111 111 111 111 111 110 107 105 103 101 100 98 96 95 93 91 89 89 88 86 83 80 78 76 73 71 69 67 65 64 64 62 58 57
79 70 60 53 45 38 32 26 21 16 11 9 10 13 15 18 20 22 24 26 28 30 32 33 36 38 41 44 46 48 51 53 54 55 57 58 59 60 63 66 69 71 74 78 84 89 93 96 100 103 107 108 108 109 110 111 111 111 112 112 110 109 107 105 103 101 98 96 95 93 91 90 89 88 86 84 82 79 76 74 72 71 69 67 66 64 62 59
80 71 61 54 46 39 34 28 23 18 13 10 10 11 14 16 18 21 23 25 27 29 30 32 34 36 38 40 43 45 48 50 53 55 56 57 59 60 62 64 66 68 70 73 78 83 87 91 95 99 103 106 107 108 109 110 110 111 112 113 113 112 112 110 108 105 101 99 97 95 93 92 90 89 89 87 85 81 79 78 76 75 73 70 68 66 66 63
81 73 63 55 47 41 35 30 26 21 15 11 10 11 12 15 17 20 22 24 26 28 29 31 33 35 37 39 40 42 44 47 49 51 53 55 57 59 61 62 64 67 69 71 74 78 81 85 90 94 98 103 105 107 107 108 109 111 112 114 115 115 115 114 112 108 105 102 99 97 95 95 93 91 90 89 88 84 81 80 80 78 76 73 71 69 68 67
82 74 64 56 48 42 37 32 28 24 19 14 11 10 11 13 16 19 21 23 25 27 28 30 32 34 36 37 39 40 42 44 46 48 50 51 54 56 58 61 63 65 68 69 71 74 76 79 84 89 93 98 101 104 106 107 108 111 113 115 116 117 116 116 114 112 109 105 103 100 98 97 95 93 91 90 89 87 84 82 82 82 79 77 74 72 70 69
82 75 65 57 49 42 38 34 30 26 21 17 13 11 11 13 15 17 19 22 24 26 28 29 31 33 34 36 37 39 41 42 44 46 47 49 51 53 56 58 60 63 65 68 70 72 74 76 79 84 88 92 96 100 103 106 108 110 113 115 116 117 116 116 115 114 112 109 107 105 102 99 97 95 93 91 90 89 87 85 84 84 83 80 78 75 73 71
81 75 66 59 51 43 38 34 31 27 23 19 16 13 12 13 14 15 18 20 22 24 26 28 30 32 34 35 36 38 39 41 42 44 46 48 50 52 54 56 58 60 63 65 67 70 72 74 77 80 84 87 91 94 99 104 107 109 112 114 115 116 117 116 116 116 115 113 111 110 107 102 98 97 96 93 91 91 90 88 86 86 86 84 81 78 75 74
Wind_Direction
268 267 266 265 264 262 260 257 255 253 251 248 245 242 241 239 237 234 231 230 229 228 226 223 221 220 219 218 216 214 215 217 220 221 221 221 221 222 222 220 221 221 219 218 217 218 217 217 218 219 220 222 223 223 222 223 223 224 225 226 227 229 229 232 235 237 237 242 254 257 264 274 278 289 291 294 320 327 326 326 330 333 339 352 1 0 359 360
267 266 264 263 263 262 260 258 255 252 250 248 246 243 241 239 238 236 233 231 230 229 227 225 223 221 220 220 218 216 215 216 218 220 221 222 222 224 224 222 223 223 222 220 219 220 220 220 220 220 222 223 224 223 223 223 224 224 225 227 228 230 230 233 235 234 235 240 251 257 263 272 277 288 288 293 318 325 327 330 331 332 338 352 1 0 358 359
267 266 264 262 261 260 259 258 255 253 250 247 245 243 241 239 238 237 235 233 230 230 228 226 225 223 220 220 220 218 216 215 216 218 220 221 222 224 224 224 224 224 224 223 221 221 222 222 222 222 224 225 226 225 224 224 226 226 226 228 229 230 231 234 235 234 235 238 246 254 260 267 273 286 291 298 317 322 327 336 337 334 341 355 1 360 358 358
268 266 264 262 261 259 258 256 255 253 251 248 245 243 241 239 238 237 236 235 232 230 229 228 226 225 222 221 220 219 218 217 216 216 218 220 221 223 225 225 225 226 225 225 224 223 223 224 223 224 226 228 228 227 225 226 227 228 228 230 230 231 232 235 237 237 237 237 242 249 254 260 267 280 288 296 309 314 322 332 334 334 345 357 359 358 357 356
268 266 265 263 261 259 257 255 254 252 251 248 246 243 241 239 238 237 236 235 234 232 230 229 227 226 225 223 221 219 219 218 217 217 217 218 220 222 223 225 226 226 226 226 226 225 224 225 224 225 226 229 230 229 228 228 229 230 230 231 232 233 234 236 239 241 240 238 240 244 250 255 262 272 279 286 298 304 312 319 322 327 343 354 356 356 354 354
269 267 265 263 261 259 257 255 253 252 250 248 246 244 242 239 237 236 235 235 235 233 232 230 228 227 226 225 223 221 219 219 219 218 217 217 218 220 222 224 225 226 226 227 227 226 226 225 225 225 227 229 231 231 230 229 231 232 232 233 235 236 237 239 241 242 243 241 239 241 246 250 255 264 273 280 290 298 302 305 309 319 336 347 351 353 351 351
270 268 266 264 262 260 258 256 253 251 249 247 246 244 242 240 238 236 235 234 234 234 233 232 230 227 227 226 225 223 221 220 219 219 219 218 217 219 220 222 224 225 226 227 227 227 227 226 226 226 227 229 231 232 232 231 232 233 233 235 238 238 238 240 242 243 244 243 240 240 243 247 249 255 267 276 283 291 293 295 301 311 328 337 343 348 348 348
270 269 267 265 263 260 258 256 254 251 249 247 245 244 242 241 239 237 235 234 233 233 233 233 232 229 227 226 226 225 222 221 220 219 220 220 218 218 219 221 222 224 225 226 227 227 228 228 227 227 228 229 231 233 233 232 232 232 233 236 238 238 237 237 239 241 243 245 243 241 241 243 244 246 258 270 276 282 286 290 295 302 315 326 333 342 345 345
273 270 268 266 264 262 259 257 254 252 250 247 245 243 241 240 239 238 235 234 233 233 232 232 232 231 229 227 226 226 224 223 221 220 220 221 220 219 218 219 220 222 223 225 226 227 228 228 228 228 228 229 230 232 233 232 232 232 233 235 237 238 237 236 236 239 242 245 244 243 242 242 241 240 247 261 268 273 281 287 292 296 303 313 321 334 341 341
273 272 270 267 265 262 260 258 255 253 250 248 245 243 241 239 238 237 236 234 233 232 232 232 232 231 231 229 227 227 225 224 222 221 221 221 221 220 220 219 219 220 222 223 225 227 227 228 228 228 228 229 230 232 233 232 232 233 233 234 236 238 238 237 237 238 241 244 245 244 244 243 241 237 240 254 263 268 278 284 288 292 297 304 311 325 336 338
273 271 270 268 266 264 261 259 257 254 251 248 246 243 240 239 238 237 236 235 233 232 231 231 231 231 231 230 229 228 226 224 223 223 223 222 221 221 221 220 219 219 221 222 224 225 227 227 228 228 229 229 231 232 233 233 233 233 233 234 235 238 239 238 237 238 240 243 245 245 246 246 244 239 238 250 261 266 274 280 285 289 293 299 305 317 330 334
274 272 270 268 267 265 262 259 257 254 252 249 246 244 241 238 237 236 235 234 234 232 231 231 230 230 230 230 231 230 227 225 224 223 224 224 222 221 222 222 221 219 220 221 222 224 225 226 227 228 228 229 230 232 232 233 233 233 233 233 234 236 238 238 237 237 239 242 244 246 248 249 248 245 242 249 259 265 270 276 283 287 290 294 300 312 325 330
275 273 271 268 266 264 262 260 257 254 252 250 247 244 241 239 236 235 234 233 233 233 232 230 230 230 229 230 230 230 229 227 224 223 224 225 224 222 222 222 222 221 220 221 221 222 224 225 226 227 228 228 229 231 232 233 234 234 235 234 234 235 238 239 238 238 239 241 243 246 248 250 252 252 249 250 257 263 267 273 279 284 286 290 298 309 320 324
278 274 271 269 266 263 261 258 256 253 251 248 246 244 242 239 236 234 233 232 232 232 232 231 229 229 229 229 229 230 230 228 226 224 224 225 226 224 223 222 223 223 221 220 221 221 223 224 225 225 226 228 229 231 232 234 235 235 236 236 235 235 237 239 240 240 241 242 243 246 248 250 253 255 254 253 255 260 266 271 275 279 283 287 297 308 316 318
283 277 272 269 266 263 260 257 254 252 249 247 244 243 241 239 237 234 232 231 231 231 231 231 230 229 228 228 228 229 230 229 227 225 224 225 226 226 224 223 223 223 222 221 221 221 223 224 224 224 225 226 228 230 231 233 234 236 236 237 236 236 237 239 241 242 242 243 245 246 248 250 252 255 256 256 256 259 264 268 271 275 278 283 294 305 311 313
292 283 276 271 266 262 258 255 252 249 247 245 242 240 239 238 237 235 232 230 230 230 230 230 230 229 228 228 228 228 228 229 228 227 225 225 226 226 226 225 224 223 223 222 222 222 223 223 224 223 224 225 226 228 230 232 233 235 236 237 237 236 237 238 240 242 243 244 245 246 247 249 251 253 256 256 256 258 262 265 267 271 275 281 290 299 305 306
306 296 286 277 270 264 258 254 250 247 245 243 241 238 237 236 236 235 233 231 229 229 229 229 229 229 228 228 228 227 227 228 228 227 227 225 225 226 226 226 225 225 224 223 222 222 223 224 224 224 224 224 225 227 228 230 232 234 235 237 237 237 238 238 240 243 244 244 245 246 247 248 250 252 254 255 256 257 259 262 264 268 273 278 285 291 297 297
318 309 300 290 280 270 262 256 251 247 244 242 240 237 235 234 234 233 232 231 229 228 228 228 228 229 228 228 228 227 226 227 227 227 227 227 226 226 227 226 226 226 225 224 223 222 223 224 225 225 225 224 224 225 227 229 232 233 235 237 237 238 238 238 239 241 243 244 245 245 246 247 249 251 253 255 256 257 258 261 264 267 271 275 280 284 286 286
326 319 311 303 292 281 270 261 254 249 245 242 239 237 234 233 232 231 231 230 229 228 227 227 227 228 228 228 228 227 226 226 226 227 227 227 226 226 227 227 226 226 226 225 224 223 223 224 225 225 225 225 224 225 226 229 231 233 234 235 236 237 237 236 236 239 241 242 242 243 245 246 247 248 251 253 255 257 258 260 263 265 268 271 275 277 276 275
332 325 318 311 301 289 277 267 259 252 247 243 240 237 234 232 231 230 229 229 228 228 227 226 226 227 227 227 227 227 227 226 226 226 227 227 227 226 226 227 227 226 226 226 225 224 224 224 225 226 226 226 226 225 226 228 230 232 233 234 236 236 236 236 236 237 240 242 242 243 244 245 246 247 248 250 252 255 256 258 260 262 264 266 269 270 267 264
335 329 323 317 307 294 282 271 263 256 251 246 241 238 235 233 231 229 228 228 228 228 227 226 226 226 226 227 227 227 227 226 226 226 226 226 227 226 226 226 227 227 226 227 226 225 225 225 226 226 226 227 227 227 227 227 229 231 233 233 235 236 236 235 235 236 238 241 242 243 244 245 246 246 247 248 249 251 254 255 257 258 260 261 262 262 259 256
337 331 325 320 311 298 284 273 265 258 253 248 244 240 237 234 232 230 228 227 227 227 227 226 226 225 225 226 226 226 226 227 226 226 226 226 226 226 226 226 226 226 226 227 227 226 226 226 226 226 226 227 227 228 228 227 228 230 232 233 234 236 236 235 234 235 236 238 240 241 242 243 244 246 247 248 249 250 252 253 254 255 256 256 255 254 251 249
337 332 327 322 314 300 285 274 265 259 254 250 246 242 238 235 233 231 229 228 227 226 227 226 226 225 225 225 225 226 226 226 226 226 226 226 226 226 226 225 225 226 226 226 227 227 226 227 227 227 227 227 227 228 229 228 228 229 231 232 234 236 236 235 234 234 235 236 238 240 242 243 244 245 245 246 247 248 249 250 251 253 253 252 250 248 247 244
337 333 328 324 316 301 286 274 266 259 254 250 246 243 239 236 234 232 231 229 227 226 226 226 226 226 225 225 225 225 226 226 226 226 226 226 226 226 226 225 225 225 226 226 226 227 227 228 228 228 228 228 228 229 230 229 229 229 230 232 234 236 236 235 234 232 233 235 236 238 241 242 243 244 244 244 245 245 246 247 248 249 250 249 248 246 243 240
337 333 329 325 317 303 288 275 266 259 254 249 246 243 240 237 235 233 231 230 228 227 226 226 226 225 225 225 225 225 225 226 226 225 226 226 227 226 226 226 225 225 225 226 226 226 228 228 229 229 228 228 228 228 229 229 229 229 230 232 234 235 236 236 234 232 232 234 236 237 239 241 242 243 244 244 244 243 243 243 244 245 246 246 245 242 238 235
337 334 330 326 318 305 291 277 266 259 253 248 245 242 240 237 235 233 231 230 229 228 227 226 225 225 225 225 225 225 225 225 225 225 225 226 226 227 227 226 226 225 224 225 226 226 227 228 229 228 228 228 228 228 229 229 229 229 229 231 233 235 236 236 235 233 232 233 235 236 238 240 241 242 242 242 243 243 242 241 241 241 242 242 241 238 235 231
337 334 331 326 319 307 293 280 267 259 252 247 244 241 239 237 235 233 232 230 229 228 227 227 226 225 225 225 226 225 225 225 225 225 225 226 226 226 227 227 227 226 225 225 225 226 227 227 228 228 228 228 228 228 229 229 229 229 230 232 234 235 236 236 235 234 233 232 234 236 236 238 240 240 240 241 242 242 240 239 238 238 238 238 238 236 232 228
337 335 332 327 320 309 296 282 270 259 252 247 243 240 238 237 235 233 231 231 229 228 227 227 226 226 225 225 225 226 226 226 225 226 225 225 225 226 227 227 227 227 226 226 225 226 227 227 228 228 228 228 228 228 228 228 229 229 231 232 234 236 236 236 235 234 234 231 231 233 234 235 238 238 239 241 241 239 237 234 234 234 234 235 236 234 231 226
337 335 332 328 321 311 298 284 271 260 251 246 243 239 237 236 234 233 231 231 230 228 227 227 226 226 225 225 225 226 226 226 226 225 225 225 225 226 226 227 227 227 228 227 226 226 226 227 227 228 228 228 227 228 227 227 228 229 231 232 234 237 237 237 236 235 235 232 230 231 232 233 236 236 237 238 237 234 233 231 230 230 229 230 231 230 228 225
337 335 333 329 322 313 300 286 272 260 251 245 242 240 237 235 234 233 232 231 230 229 227 226 226 226 225 225 225 225 226 226 226 226 225 225 226 226 226 227 227 227 228 228 228 227 227 227 227 228 228 228 228 228 227 227 227 229 230 230 232 235 236 236 236 236 235 233 230 230 230 231 234 235 233 232 231 231 232 232 229 225 223 224 225 225 224 222
338 336 334 329 323 314 302 288 273 261 253 246 242 239 237 235 233 232 231 231 230 229 227 226 226 225 225 225 225 225 226 226 226 226 226 225 226 226 226 227 227 227 227 228 228 228 227 227 227 227 228 228 228 228 227 227 227 229 229 230 231 233 234 234 235 235 235 233 230 228 228 229 231 232 229 228 230 229 229 231 230 225 220 220 221 221 220 219
338 337 334 330 324 316 304 290 275 263 255 247 242 238 236 235 233 232 231 231 230 229 228 227 226 225 225 225 224 225 226 226 226 226 226 226 226 226 226 227 227 227 227 228 228 228 228 227 227 227 227 227 228 228 227 227 227 229 230 230 230 232 233 233 233 234 233 232 231 227 226 226 227 230 228 227 227 225 223 225 227 226 222 220 220 220 218 217
339 338 335 330 325 317 306 293 278 264 255 248 242 237 234 234 233 232 230 230 229 228 227 226 225 225 224 224 224 225 225 225 225 225 225 225 226 226 227 227 227 227 227 227 228 228 228 228 228 227 227 227 228 228 227 227 227 228 230 230 230 231 232 232 233 233 232 231 231 227 224 223 223 225 227 225 224 222 220 220 222 224 223 221 220 219 219 217
339 339 336 331 326 319 308 295 280 265 253 245 240 236 233 232 231 231 231 229 229 228 227 226 225 224 224 224 224 224 224 225 225 225 225 225 225 226 227 227 227 227 227 228 228 228 228 228 228 227 227 228 228 228 228 227 227 227 228 229 230 231 231 231 231 231 230 231 231 228 224 221 220 222 225 225 224 222 221 220 220 222 223 223 222 220 218 217
340 339 337 332 328 321 310 297 281 265 251 242 237 234 232 231 230 230 231 230 229 229 229 227 225 225 225 225 224 224 224 224 224 224 224 225 225 225 226 227 227 227 227 227 228 228 228 228 228 228 227 228 228 228 228 228 227 227 227 228 229 230 231 231 231 230 229 230 232 229 224 221 219 220 223 225 225 223 222 221 220 221 221 222 222 220 216 214
341 340 338 334 331 323 312 299 281 262 248 239 235 233 231 230 229 229 229 230 230 230 230 229 226 226 226 226 226 226 225 225 225 224 224 224 224 225 225 226 227 227 227 227 228 228 228 228 227 227 227 227 227 227 227 228 227 227 227 228 228 228 229 229 229 229 228 229 232 230 226 221 217 218 221 224 227 227 225 225 223 221 220 219 220 221 218 215
343 342 339 337 333 326 315 301 280 261 248 239 234 232 231 229 228 228 229 229 230 231 232 231 228 226 227 227 227 226 226 226 226 225 224 223 224 224 224 225 226 226 227 227 227 228 228 228 227 227 227 227 227 227 227 228 228 227 226 227 228 227 227 227 227 227 227 228 231 231 229 224 219 218 221 223 226 229 228 229 229 227 223 220 219 221 220 218
344 343 342 340 336 329 318 303 283 264 248 239 234 231 230 229 227 227 227 228 230 231 233 233 231 228 228 228 227 226 226 226 226 226 225 224 223 223 224 224 225 225 226 226 227 228 228 228 228 227 227 227 227 227 227 228 228 227 226 226 227 227 227 227 226 226 226 226 228 230 230 227 222 220 221 221 223 226 227 228 231 231 228 224 221 220 220 220
346 346 346 343 339 332 321 305 287 267 251 242 236 231 229 228 227 226 226 227 228 230 232 233 232 229 228 228 228 227 226 225 225 226 225 224 224 223 223 224 224 225 226 226 226 227 227 228 228 228 227 227 226 226 227 228 228 227 226 226 226 227 227 227 226 225 225 225 226 228 229 228 225 222 222 221 221 223 225 225 226 229 229 227 225 222 221 220
348 348 348 346 342 336 326 310 291 271 255 244 237 232 230 229 228 227 226 225 226 228 229 230 231 229 227 227 227 227 225 224 224 225 225 225 224 224 224 224 225 225 226 226 226 227 227 227 228 228 228 227 226 226 226 227 228 228 227 226 226 227 227 227 226 225 224 224 224 226 229 228 225 224 222 221 221 221 223 225 225 225 226 226 226 224 223 220
350 351 351 349 345 339 331 318 298 276 258 245 236 231 229 228 228 227 225 225 225 227 227 228 229 228 227 226 226 227 226 225 224 224 225 225 224 224 225 226 226 226 226 226 226 227 227 227 227 228 228 227 227 226 226 226 227 228 227 226 226 226 227 227 227 226 224 224 224 225 229 228 226 225 223 221 220 219 221 223 224 225 225 224 224 224 224 222
352 353 352 351 348 343 337 326 307 282 262 247 237 232 227 225 225 226 227 226 227 227 227 227 228 228 226 225 225 226 226 226 225 223 224 224 224 223 224 225 226 227 227 226 226 227 227 227 228 228 228 228 228 227 226 226 227 228 228 227 226 226 226 226 227 226 225 225 224 225 227 228 226 226 224 221 219 218 218 221 222 224 225 225 224 224 224 223
355 355 354 353 350 347 342 333 316 290 270 251 239 233 229 227 226 226 227 226 226 227 226 227 227 227 226 225 225 225 225 226 226 225 224 224 223 223 223 224 225 226 227 227 226 226 227 227 228 228 228 228 228 227 226 226 227 228 228 228 227 226 226 226 226 226 225 225 224 225 227 228 225 224 224 222 220 218 217 219 220 222 224 225 225 223 224 225
356 356 356 354 352 350 346 339 325 301 278 259 245 237 232 229 226 225 226 225 224 225 226 226 227 227 227 226 225 226 226 226 227 227 225 224 223 223 223 223 224 225 227 227 227 226 226 227 228 229 228 228 228 228 227 226 226 227 228 228 228 227 227 226 226 226 225 225 224 224 227 228 227 225 223 221 220 219 218 218 218 220 223 226 227 224 222 224
357 358 358 356 354 352 350 344 334 314 288 266 250 240 235 230 227 226 227 226 225 225 225 226 227 227 227 226 226 226 226 226 227 228 227 226 225 224 223 224 225 225 226 227 228 227 227 227 228 229 229 228 228 228 228 227 226 227 228 228 228 228 227 227 226 226 225 225 224 224 225 227 227 226 224 220 219 218 217 217 217 218 221 224 227 227 224 223
359 359 359 357 355 354 352 348 340 327 303 275 254 242 236 232 230 229 228 228 226 226 226 226 227 228 229 228 228 228 228 228 228 229 229 228 227 226 225 226 227 227 227 228 228 228 228 228 228 229 229 228 228 228 228 227 227 227 227 228 228 228 228 227 227 226 225 225 224 223 224 225 225 226 226 222 218 217 216 216 216 217 218 221 225 229 228 225
359 360 359 358 357 356 355 352 346 336 318 289 263 247 238 233 232 231 230 229 227 227 227 227 228 229 229 229 228 228 229 229 228 229 229 229 229 227 226 227 228 228 228 229 229 228 228 228 229 230 230 229 228 228 228 228 227 227 227 227 227 228 228 228 227 227 226 225 224 223 223 224 223 224 226 224 221 217 215 215 216 216 216 218 222 227 229 228
359 360 0 359 359 359 358 355 351 344 330 307 280 259 246 238 234 232 232 232 230 229 228 227 227 227 228 228 228 227 228 229 229 229 230 230 230 229 229 229 229 229 229 230 230 229 228 228 228 229 230 230 229 228 228 228 228 227 227 227 227 226 227 227 227 227 226 225 225 224 223 224 223 222 224 225 223 220 216 214 215 216 216 217 219 222 227 230
358 360 1 0 360 0 0 359 355 350 340 321 295 273 258 247 239 234 233 234 234 233 231 230 229 228 228 229 228 227 227 228 228 229 229 230 231 231 230 230 230 230 229 230 231 231 229 228 228 229 230 230 229 228 228 228 228 228 227 227 227 226 226 227 227 226 226 226 225 224 223 224 223 222 222 224 224 222 218 215 215 216 216 216 217 218 223 228
357 359 0 1 1 1 2 2 359 354 346 333 311 286 269 256 247 241 237 235 235 235 235 234 234 233 232 232 231 231 230 229 228 228 228 228 229 230 230 230 231 231 230 229 230 231 231 230 229 229 229 230 230 229 228 227 227 227 227 227 227 226 226 226 226 226 226 225 225 224 223 223 223 222 221 222 223 223 221 217 215 215 215 215 215 216 219 224
357 358 359 1 1 2 3 3 2 358 351 341 326 303 280 265 255 248 243 240 238 236 236 236 237 237 237 236 235 235 233 232 231 230 228 227 227 229 229 230 231 231 231 230 229 229 230 230 230 229 229 229 230 229 228 227 227 227 227 227 227 227 226 225 226 226 226 225 225 225 224 223 223 223 222 221 221 222 222 220 217 216 215 215 215 215 216 219
356 357 358 360 0 2 4 4 3 0 354 347 335 317 296 277 263 255 250 246 244 241 239 238 238 238 238 238 237 237 236 235 234 233 232 229 228 228 228 228 230 231 231 231 230 229 229 229 229 230 229 229 229 230 229 227 227 227 227 227 227 227 226 226 225 225 225 225 225 225 224 223 222 222 222 221 219 220 222 221 219 217 216 215 214 214 215 217
Height
10913 10913 10914 10914 10915 10915 10916 10916 10917 10918 10919 10920 10922 10923 10924 10925 10926 10927 10928 10930 10931 10932 10933 10934 10936 10938 10939 10941 10943 10945 10947 10949 10951 10953 10955 10957 10959 10960 10962 10965 10966 10967 10969 10972 10974 10976 10978 10979 10980 10981 10982 10982 10983 10985 10988 10990 10992 10994 10995 10996 10997 10998 11000 11001 11001 11002 11003 11004 11004 11004 11004 11005 11005 11005 11005 11004 11003 11004 11004 11002 11001 11000 10998 10995 10995 10993 10992 10990
10907 10907 10908 10909 10909 10910 10910 10911 10912 10913 10914 10915 10917 10918 10919 10921 10922 10923 10924 10925 10926 10927 10929 10930 10932 10933 10935 10937 10939 10941 10943 10945 10947 10949 10951 10953 10955 10956 10959 10962 10963 10964 10966 10969 10972 10974 10975 10976 10977 10979 10979 10980 10981 10983 10986 10988 10990 10992 10993 10994 10995 10996 10998 10999 11000 11001 11002 11003 11003 11003 11003 11004 11004 11004 11004 11003 11003 11003 11003 11001 11001 11000 10998 10996 10995 10994 10993 10991
10900 10901 10901 10902 10903 10904 10905 10906 10907 10908 10909 10910 10911 10913 10914 10916 10917 10918 10919 10920 10922 10923 10924 10925 10927 10929 10931 10932 10935 10937 10939 10940 10942 10944 10947 10949 10952 10953 10955 10958 10959 10961 10964 10966 10969 10970 10971 10973 10975 10977 10977 10978 10979 10981 10983 10986 10988 10990 10991 10992 10992 10994 10996 10997 10998 10999 11000 11001 11002 11002 11002 11003 11003 11003 11003 11003 11003 11003 11002 11001 11001 11001 10999 10996 10995 10995 10994 10992
10893 10894 10894 10895 10896 10897 10898 10899 10901 10902 10903 10905 10906 10907 10908 10910 10911 10913 10914 10915 10917 10918 10919 10920 10922 10924 10926 10928 10930 10932 10934 10936 10938 10940 10942 10945 10947 10949 10951 10954 10956 10958 10961 10963 10965 10966 10968 10970 10972 10974 10975 10976 10976 10978 10981 10984 10986 10987 10989 10989 10991 10993 10995 10996 10997 10998 10999 11000 11001 11001 11001 11002 11002 11003 11002 11003 11003 11002 11001 11000 11001 11001 10999 10996 10996 10996 10995 10993
10886 10886 10887 10888 10889 10890 10891 10892 10893 10895 10897 10898 10900 10901 10902 10904 10905 10907 10908 10910 10911 10912 10914 10915 10917 10919 10921 10923 10925 10927 10929 10931 10933 10935 10937 10939 10942 10945 10947 10950 10952 10954 10957 10959 10961 10963 10965 10967 10969 10971 10972 10973 10974 10976 10979 10982 10983 10985 10986 10988 10989 10991 10993 10994 10995 10995 10997 10998 10999 11000 11001 11001 11002 11002 11002 11002 11002 11001 11000 11000 11001 11001 10999 10997 10996 10996 10996 10994
10878 10878 10879 10880 10881 10882 10883 10884 10885 10887 10889 10891 10893 10895 10896 10898 10899 10900 10902 10903 10905 10907 10908 10909 10911 10913 10916 10917 10919 10922 10924 10926 10928 10930 10932 10935 10937 10940 10942 10945 10947 10950 10953 10955 10956 10959 10961 10963 10965 10968 10969 10970 10971 10974 10977 10979 10981 10982 10984 10986 10987 10989 10990 10991 10992 10993 10994 10996 10997 10998 10999 11000 11001 11002 11001 11001 11001 11000 10999 11000 11000 11000 10999 10998 10997 10997 10996 10995
10871 10870 10871 10872 10873 10874 10875 10876 10877 10879 10881 10883 10885 10888 10890 10891 10893 10894 10895 10897 10899 10900 10902 10903 10905 10908 10910 10911 10913 10916 10919 10921 10923 10926 10928 10930 10933 10935 10937 10940 10942 10946 10948 10950 10952 10955 10957 10959 10962 10965 10966 10967 10969 10972 10973 10976 10978 10980 10983 10984 10985 10986 10987 10988 10989 10990 10992 10993 10996 10997 10998 10999 11001 11001 11000 11000 11000 10999 10999 10999 10999 10999 10999 10999 10998 10997 10997 10996
10864 10863 10862 10863 10864 10865 10866 10867 10868 10870 10872 10874 10877 10879 10882 10884 10886 10887 10889 10890 10892 10893 10895 10897 10899 10902 10904 10906 10907 10910 10913 10915 10918 10921 10924 10925 10927 10929 10932 10934 10937 10941 10943 10945 10947 10950 10953 10956 10959 10961 10963 10966 10967 10968 10970 10972 10975 10977 10980 10981 10981 10982 10983 10984 10985 10987 10989 10991 10993 10995 10996 10998 11000 11001 11000 10999 10999 10999 10998 10998 10998 10998 10999 11000 10999 10998 10997 10996
10856 10855 10855 10855 10855 10856 10857 10858 10859 10861 10862 10865 10867 10870 10873 10876 10878 10880 10881 10883 10885 10886 10888 10890 10892 10895 10898 10900 10901 10904 10907 10910 10913 10916 10918 10920 10922 10924 10926 10929 10932 10935 10937 10940 10942 10945 10949 10953 10955 10958 10960 10962 10963 10964 10965 10968 10972 10974 10977 10977 10977 10977 10979 10981 10983 10985 10987 10989 10991 10993 10995 10996 10998 11000 11000 10999 10998 10998 10998 10997 10997 10998 10999 11000 11000 10999 10997 10996
10847 10846 10846 10846 10846 10847 10847 10848 10849 10850 10852 10855 10857 10860 10863 10866 10869 10871 10873 10875 10877 10879 10880 10883 10885 10888 10891 10893 10895 10897 10900 10904 10907 10910 10912 10914 10916 10919 10921 10924 10927 10929 10932 10934 10937 10941 10945 10948 10951 10953 10956 10958 10959 10960 10961 10965 10969 10970 10972 10973 10974 10975 10976 10979 10981 10984 10986 10987 10988 10991 10992 10994 10996 10998 10999 10998 10997 10998 10997 10997 10997 10998 10999 11000 11001 11000 10998 10997
10837 10837 10836 10836 10837 10837 10838 10838 10839 10840 10842 10844 10847 10850 10853 10856 10859 10862 10864 10867 10869 10871 10872 10875 10877 10881 10884 10886 10888 10890 10893 10898 10901 10904 10906 10907 10911 10914 10916 10918 10921 10924 10926 10928 10933 10936 10939 10943 10946 10948 10951 10954 10955 10956 10958 10961 10963 10965 10967 10969 10971 10972 10973 10975 10978 10981 10984 10985 10986 10989 10990 10992 10994 10996 10998 10998 10997 10997 10997 10997 10998 10998 10998 11000 11001 11000 10999 10997
10827 10826 10826 10826 10826 10826 10827 10828 10828 10829 10831 10833 10836 10839 10842 10845 10848 10851 10854 10857 10860 10862 10864 10866 10869 10873 10876 10879 10881 10882 10886 10891 10895 10898 10900 10901 10905 10908 10910 10913 10916 10918 10920 10924 10928 10931 10934 10937 10940 10943 10947 10949 10950 10951 10953 10956 10958 10960 10963 10965 10968 10969 10969 10971 10974 10978 10981 10982 10984 10987 10988 10989 10991 10994 10996 10997 10997 10997 10997 10997 10997 10998 10998 10999 11000 11000 10999 10998
10816 10815 10815 10815 10814 10814 10814 10815 10816 10817 10819 10822 10824 10827 10831 10834 10837 10840 10844 10847 10850 10853 10855 10858 10861 10864 10868 10871 10873 10875 10879 10883 10888 10892 10893 10894 10898 10902 10904 10907 10910 10913 10916 10920 10924 10926 10929 10931 10934 10938 10941 10943 10944 10946 10949 10951 10953 10956 10958 10961 10965 10967 10967 10968 10972 10976 10978 10980 10983 10984 10985 10987 10989 10991 10994 10996 10996 10996 10996 10997 10997 10997 10997 10998 10999 11000 10999 10998
10806 10804 10803 10803 10802 10801 10801 10802 10803 10804 10806 10809 10812 10815 10819 10822 10825 10829 10832 10836 10840 10843 10846 10849 10852 10855 10859 10862 10864 10868 10871 10875 10880 10885 10887 10888 10891 10895 10898 10901 10904 10907 10911 10915 10918 10920 10922 10925 10929 10933 10935 10938 10940 10943 10945 10947 10949 10951 10954 10957 10961 10964 10965 10966 10969 10973 10975 10978 10981 10982 10983 10985 10987 10988 10990 10993 10995 10995 10995 10995 10996 10996 10996 10997 10998 10998 10999 10998
10796 10793 10792 10791 10790 10788 10787 10788 10789 10791 10792 10795 10798 10802 10805 10809 10812 10817 10821 10825 10829 10832 10835 10840 10843 10846 10851 10853 10856 10860 10863 10867 10872 10877 10880 10882 10884 10888 10891 10895 10898 10901 10906 10910 10912 10915 10917 10920 10924 10926 10929 10933 10935 10937 10939 10941 10944 10947 10950 10953 10956 10960 10962 10964 10967 10969 10972 10975 10978 10980 10982 10984 10985 10986 10987 10990 10993 10994 10994 10994 10994 10995 10995 10996 10997 10997 10998 10998
10786 10782 10781 10779 10777 10775 10774 10774 10775 10777 10778 10781 10785 10788 10792 10795 10800 10805 10809 10813 10818 10821 10825 10830 10833 10837 10842 10844 10847 10852 10856 10859 10864 10868 10873 10876 10878 10880 10884 10888 10891 10895 10900 10904 10907 10911 10912 10914 10917 10920 10924 10927 10929 10932 10933 10936 10939 10942 10944 10948 10951 10956 10960 10962 10964 10966 10969 10972 10974 10977 10979 10981 10983 10983 10985 10987 10990 10992 10992 10992 10993 10994 10994 10995 10995 10996 10997 10997
10776 10772 10769 10767 10765 10763 10761 10760 10761 10762 10764 10766 10770 10775 10779 10782 10787 10792 10797 10802 10806 10809 10814 10819 10823 10827 10832 10836 10839 10843 10847 10850 10855 10859 10864 10868 10871 10873 10877 10881 10885 10889 10893 10898 10902 10905 10907 10908 10911 10915 10919 10921 10924 10926 10928 10930 10933 10936 10939 10943 10948 10953 10957 10960 10962 10963 10965 10968 10971 10973 10976 10978 10980 10981 10982 10984 10987 10989 10990 10990 10991 10992 10993 10993 10994 10995 10996 10997
10767 10762 10758 10756 10753 10751 10749 10747 10747 10748 10750 10752 10756 10761 10766 10769 10774 10779 10784 10790 10794 10798 10802 10808 10813 10817 10822 10826 10829 10833 10837 10842 10846 10851 10855 10860 10864 10867 10870 10874 10878 10882 10887 10892 10896 10899 10901 10903 10907 10910 10912 10915 10917 10920 10922 10924 10928 10932 10936 10940 10944 10949 10952 10956 10959 10960 10961 10964 10967 10969 10972 10975 10977 10978 10980 10981 10984 10986 10988 10988 10990 10991 10992 10992 10993 10994 10995 10996
10759 10753 10749 10745 10742 10739 10737 10735 10734 10735 10736 10739 10742 10747 10752 10757 10761 10766 10772 10777 10782 10786 10790 10796 10801 10806 10811 10815 10819 10824 10829 10834 10838 10842 10846 10850 10856 10860 10863 10867 10871 10875 10880 10884 10889 10893 10895 10898 10902 10904 10905 10907 10911 10915 10918 10921 10925 10928 10931 10935 10939 10942 10945 10950 10954 10955 10956 10959 10962 10964 10968 10971 10973 10975 10977 10979 10981 10983 10985 10987 10988 10990 10990 10991 10992 10993 10994 10995
10751 10745 10740 10736 10732 10728 10726 10724 10722 10723 10723 10725 10728 10733 10739 10744 10749 10754 10759 10765 10769 10773 10778 10785 10790 10795 10800 10805 10809 10816 10821 10825 10829 10834 10838 10841 10846 10852 10855 10859 10863 10868 10873 10876 10881 10886 10889 10893 10895 10896 10898 10902 10906 10911 10914 10918 10921 10923 10926 10930 10933 10935 10939 10945 10950 10953 10954 10955 10958 10962 10965 10967 10969 10972 10974 10976 10979 10980 10983 10985 10986 10988 10989 10990 10991 10992 10993 10994
10744 10737 10732 10728 10723 10718 10716 10713 10711 10711 10712 10713 10716 10720 10726 10732 10736 10741 10748 10752 10756 10761 10767 10773 10778 10783 10789 10795 10800 10806 10811 10815 10820 10824 10828 10833 10837 10842 10847 10851 10855 10861 10865 10869 10874 10879 10884 10888 10887 10888 10893 10898 10902 10906 10909 10913 10916 10918 10921 10925 10928 10928 10932 10940 10946 10950 10952 10952 10955 10959 10961 10963 10965 10969 10972 10974 10976 10978 10980 10982 10984 10985 10987 10989 10990 10991 10992 10992
10736 10730 10724 10719 10714 10708 10706 10703 10701 10701 10701 10702 10705 10709 10714 10718 10723 10729 10736 10741 10745 10750 10755 10760 10766 10772 10778 10785 10790 10796 10801 10805 10810 10815 10819 10824 10828 10833 10838 10842 10847 10852 10857 10862 10868 10873 10878 10879 10878 10882 10888 10892 10896 10900 10903 10907 10911 10914 10917 10920 10920 10920 10926 10935 10941 10945 10948 10949 10952 10954 10956 10959 10962 10966 10969 10972 10974 10976 10977 10980 10982 10983 10985 10987 10988 10989 10990 10991
10730 10722 10715 10711 10705 10699 10696 10694 10691 10691 10691 10692 10695 10698 10702 10705 10710 10717 10723 10729 10734 10739 10743 10749 10755 10761 10767 10773 10778 10786 10792 10794 10800 10806 10811 10815 10818 10823 10828 10834 10840 10845 10850 10855 10860 10866 10869 10869 10870 10876 10882 10886 10891 10894 10898 10903 10908 10910 10912 10913 10913 10913 10920 10929 10935 10941 10944 10945 10948 10949 10951 10956 10960 10963 10966 10968 10971 10973 10975 10977 10979 10980 10982 10984 10986 10988 10989 10989
10723 10715 10707 10702 10697 10690 10686 10684 10682 10681 10682 10683 10686 10688 10690 10693 10698 10703 10710 10716 10721 10727 10732 10737 10743 10750 10756 10761 10769 10777 10780 10783 10790 10797 10801 10805 10810 10815 10820 10826 10831 10837 10842 10847 10853 10859 10860 10861 10866 10872 10877 10881 10886 10890 10894 10899 10903 10905 10907 10907 10906 10908 10914 10922 10930 10937 10939 10941 10945 10946 10948 10953 10956 10958 10961 10964 10967 10970 10972 10973 10976 10977 10979 10981 10984 10986 10987 10988
10715 10707 10698 10694 10689 10680 10677 10676 10673 10672 10673 10675 10676 10677 10679 10682 10687 10691 10697 10703 10709 10715 10721 10726 10732 10739 10745 10751 10759 10764 10767 10773 10781 10787 10792 10796 10801 10807 10812 10817 10822 10829 10835 10840 10846 10851 10853 10856 10860 10866 10871 10875 10880 10885 10889 10892 10896 10900 10901 10900 10899 10902 10908 10915 10925 10931 10935 10937 10941 10944 10946 10949 10952 10954 10958 10961 10963 10966 10968 10970 10973 10974 10976 10978 10981 10983 10984 10986
10707 10699 10689 10684 10680 10672 10667 10666 10664 10663 10665 10666 10667 10668 10669 10673 10677 10680 10685 10690 10696 10704 10710 10715 10721 10728 10735 10741 10746 10751 10757 10763 10771 10777 10783 10787 10792 10798 10804 10809 10814 10820 10827 10833 10839 10843 10845 10849 10853 10858 10863 10868 10874 10878 10882 10886 10891 10894 10894 10892 10893 10897 10902 10909 10919 10926 10931 10935 10938 10941 10944 10946 10948 10951 10954 10956 10959 10963 10965 10967 10969 10971 10973 10976 10977 10979 10982 10983
10699 10691 10681 10674 10671 10665 10659 10657 10655 10655 10656 10656 10657 10658 10661 10664 10668 10671 10675 10679 10684 10691 10697 10704 10711 10717 10724 10730 10735 10742 10747 10753 10761 10767 10772 10778 10783 10790 10795 10800 10806 10813 10820 10827 10831 10834 10837 10842 10845 10849 10855 10861 10867 10872 10875 10880 10885 10887 10886 10886 10888 10891 10896 10904 10913 10920 10926 10931 10935 10938 10941 10942 10944 10947 10950 10953 10957 10960 10962 10964 10966 10968 10971 10973 10974 10977 10979 10981
10690 10682 10673 10665 10661 10657 10651 10648 10647 10646 10647 10647 10648 10650 10652 10655 10659 10662 10665 10668 10673 10679 10686 10693 10700 10706 10714 10720 10725 10731 10737 10743 10750 10755 10761 10768 10775 10781 10787 10793 10800 10807 10813 10819 10822 10826 10829 10833 10837 10843 10848 10854 10859 10863 10868 10875 10879 10878 10879 10882 10883 10885 10891 10899 10908 10914 10920 10928 10931 10933 10936 10938 10939 10943 10947 10951 10954 10956 10957 10959 10961 10964 10967 10970 10972 10974 10976 10978
10682 10674 10666 10657 10652 10648 10644 10640 10638 10638 10638 10638 10639 10642 10645 10647 10650 10653 10656 10659 10662 10669 10676 10682 10688 10695 10704 10711 10715 10721 10726 10731 10737 10743 10751 10759 10767 10775 10780 10786 10793 10800 10805 10810 10814 10818 10822 10826 10831 10836 10840 10844 10849 10854 10860 10868 10870 10869 10872 10878 10878 10881 10887 10895 10903 10909 10915 10924 10927 10928 10932 10934 10935 10939 10945 10948 10949 10950 10951 10954 10957 10960 10964 10966 10968 10971 10973 10975
10675 10666 10657 10650 10643 10639 10635 10632 10630 10629 10629 10630 10631 10634 10637 10640 10643 10645 10648 10650 10654 10661 10667 10671 10678 10686 10694 10700 10705 10709 10714 10719 10725 10733 10742 10752 10761 10768 10773 10779 10785 10791 10796 10800 10805 10810 10814 10819 10823 10825 10830 10836 10842 10846 10853 10860 10861 10861 10866 10871 10873 10875 10881 10890 10898 10903 10911 10919 10923 10925 10928 10930 10932 10936 10941 10942 10941 10944 10947 10950 10952 10955 10959 10961 10964 10967 10969 10971
10667 10658 10649 10642 10635 10631 10627 10624 10622 10621 10621 10623 10625 10627 10630 10633 10636 10638 10640 10642 10647 10652 10657 10662 10668 10675 10682 10688 10693 10698 10701 10707 10715 10724 10735 10745 10752 10758 10764 10770 10775 10782 10787 10790 10794 10799 10803 10808 10812 10817 10824 10830 10834 10838 10846 10852 10853 10854 10858 10863 10866 10869 10874 10884 10892 10898 10907 10914 10917 10921 10924 10927 10929 10931 10934 10934 10935 10941 10945 10946 10948 10950 10953 10956 10959 10962 10965 10968
10660 10650 10641 10634 10628 10623 10619 10617 10615 10614 10615 10617 10619 10621 10624 10626 10628 10630 10632 10635 10639 10644 10649 10654 10659 10664 10669 10676 10682 10687 10691 10697 10707 10717 10727 10735 10742 10748 10754 10760 10766 10773 10777 10780 10784 10788 10793 10799 10804 10809 10816 10821 10824 10830 10837 10843 10845 10848 10851 10856 10861 10864 10868 10878 10885 10892 10901 10906 10910 10917 10921 10924 10925 10926 10928 10928 10930 10936 10939 10941 10943 10945 10948 10951 10954 10958 10961 10964
10652 10643 10633 10626 10620 10616 10612 10610 10608 10608 10609 10611 10613 10614 10616 10618 10619 10622 10624 10628 10632 10635 10639 10643 10648 10652 10658 10664 10670 10675 10681 10688 10697 10708 10717 10725 10732 10738 10743 10749 10756 10763 10768 10771 10774 10778 10785 10791 10794 10801 10807 10811 10816 10822 10827 10833 10839 10842 10844 10849 10855 10858 10864 10873 10880 10887 10895 10898 10903 10911 10916 10919 10921 10920 10921 10921 10923 10928 10931 10934 10936 10939 10944 10947 10951 10955 10958 10961
10645 10636 10626 10618 10613 10608 10605 10603 10602 10602 10603 10604 10605 10606 10608 10609 10612 10615 10618 10621 10624 10626 10628 10632 10637 10642 10647 10653 10658 10663 10669 10677 10687 10698 10707 10714 10721 10727 10732 10739 10746 10752 10757 10761 10763 10768 10775 10779 10784 10793 10799 10802 10808 10814 10819 10825 10830 10833 10835 10840 10847 10852 10858 10866 10874 10880 10887 10890 10896 10904 10910 10914 10916 10914 10913 10914 10916 10921 10924 10927 10931 10934 10940 10944 10948 10952 10955 10958
10637 10628 10619 10612 10606 10602 10598 10596 10596 10596 10596 10597 10597 10598 10600 10602 10606 10609 10612 10614 10617 10618 10620 10624 10631 10636 10639 10644 10649 10654 10661 10669 10679 10689 10697 10705 10711 10717 10722 10728 10735 10741 10746 10750 10753 10757 10763 10768 10775 10783 10788 10793 10799 10805 10811 10815 10818 10821 10826 10831 10838 10846 10853 10860 10867 10873 10879 10883 10887 10895 10902 10907 10909 10907 10906 10907 10910 10914 10918 10922 10927 10930 10936 10942 10946 10949 10952 10955
10631 10622 10613 10606 10600 10596 10592 10590 10589 10589 10589 10590 10590 10591 10593 10596 10600 10603 10605 10607 10610 10612 10613 10617 10624 10629 10633 10637 10643 10649 10656 10663 10670 10679 10687 10693 10698 10705 10711 10716 10722 10728 10733 10738 10742 10746 10751 10758 10766 10772 10776 10782 10788 10795 10800 10802 10805 10813 10820 10825 10832 10839 10846 10852 10859 10866 10872 10875 10879 10886 10892 10897 10899 10899 10900 10904 10908 10913 10916 10920 10924 10928 10933 10939 10942 10945 10948 10950
10626 10616 10607 10599 10594 10590 10586 10584 10583 10583 10583 10583 10584 10585 10588 10591 10594 10597 10599 10601 10604 10606 10607 10611 10618 10623 10626 10631 10635 10641 10649 10654 10660 10668 10674 10680 10686 10692 10698 10703 10709 10714 10721 10726 10731 10736 10741 10748 10756 10760 10764 10771 10778 10785 10788 10789 10795 10805 10813 10819 10823 10828 10834 10841 10849 10857 10864 10869 10871 10876 10881 10887 10891 10893 10899 10905 10908 10913 10918 10921 10924 10929 10933 10936 10939 10941 10944 10947
10620 10611 10602 10594 10589 10585 10581 10579 10578 10577 10577 10577 10578 10580 10583 10585 10588 10591 10594 10596 10599 10601 10602 10606 10612 10618 10621 10624 10627 10633 10640 10645 10650 10656 10662 10668 10674 10680 10685 10690 10695 10701 10708 10714 10720 10725 10730 10736 10744 10749 10753 10760 10768 10774 10777 10779 10786 10796 10804 10810 10813 10818 10826 10834 10841 10848 10855 10861 10864 10867 10871 10879 10886 10891 10897 10902 10905 10910 10915 10920 10925 10929 10933 10935 10936 10938 10941 10944
10613 10605 10597 10590 10584 10580 10577 10574 10573 10572 10571 10572 10574 10576 10577 10579 10582 10585 10588 10591 10594 10595 10598 10601 10606 10612 10616 10618 10621 10626 10631 10637 10642 10646 10651 10657 10663 10668 10673 10679 10685 10690 10697 10703 10709 10714 10718 10724 10731 10736 10741 10748 10756 10762 10766 10770 10777 10786 10794 10800 10804 10809 10818 10825 10831 10838 10845 10851 10856 10858 10861 10871 10881 10887 10892 10898 10902 10907 10911 10916 10921 10924 10928 10931 10933 10935 10937 10940
10608 10599 10592 10586 10580 10576 10572 10570 10568 10567 10567 10568 10570 10571 10573 10574 10577 10580 10583 10586 10588 10590 10593 10596 10600 10605 10609 10612 10615 10618 10623 10628 10633 10637 10641 10646 10653 10659 10665 10671 10676 10681 10685 10690 10696 10701 10706 10712 10718 10723 10728 10736 10742 10749 10755 10762 10768 10775 10783 10790 10795 10802 10809 10815 10821 10829 10836 10842 10848 10849 10852 10863 10874 10880 10887 10894 10899 10904 10907 10911 10914 10917 10921 10925 10928 10931 10933 10935
10603 10595 10588 10582 10577 10572 10569 10566 10564 10563 10563 10564 10565 10566 10568 10570 10572 10574 10577 10580 10582 10585 10588 10591 10594 10598 10603 10607 10609 10612 10616 10621 10625 10628 10632 10637 10645 10652 10658 10662 10666 10669 10673 10678 10683 10688 10694 10700 10706 10710 10716 10722 10729 10737 10748 10755 10759 10764 10772 10780 10788 10794 10801 10807 10813 10821 10828 10834 10840 10842 10846 10857 10868 10874 10882 10890 10896 10901 10904 10906 10908 10911 10914 10917 10920 10924 10927 10930
10600 10591 10584 10578 10573 10569 10566 10563 10561 10559 10559 10560 10560 10562 10563 10565 10567 10569 10572 10576 10578 10581 10584 10587 10589 10593 10597 10600 10603 10606 10609 10612 10615 10619 10624 10630 10636 10643 10647 10650 10653 10656 10659 10665 10671 10677 10683 10690 10694 10698 10704 10710 10717 10727 10739 10746 10750 10754 10760 10770 10779 10786 10792 10798 10805 10813 10820 10826 10832 10835 10839 10849 10859 10867 10876 10884 10890 10896 10899 10901 10903 10906 10909 10911 10914 10918 10921 10925
10598 10588 10581 10575 10570 10566 10563 10560 10558 10556 10556 10556 10557 10558 10559 10561 10564 10566 10569 10571 10573 10575 10578 10580 10583 10586 10590 10593 10597 10599 10601 10603 10606 10612 10618 10623 10627 10632 10636 10638 10640 10643 10647 10652 10658 10665 10672 10678 10681 10684 10691 10699 10707 10716 10728 10737 10742 10745 10750 10760 10769 10776 10782 10789 10796 10803 10810 10817 10824 10829 10833 10841 10849 10859 10869 10877 10884 10890 10893 10896 10899 10901 10903 10906 10909 10914 10917 10920
10595 10586 10579 10573 10568 10564 10560 10557 10555 10554 10553 10553 10554 10554 10556 10558 10560 10562 10563 10565 10567 10569 10572 10574 10576 10579 10583 10587 10591 10593 10595 10598 10601 10605 10610 10613 10617 10622 10625 10627 10629 10631 10634 10639 10646 10653 10661 10667 10669 10671 10678 10688 10696 10705 10716 10726 10732 10736 10741 10750 10759 10766 10773 10780 10786 10792 10799 10807 10815 10822 10828 10834 10842 10851 10861 10870 10877 10883 10887 10891 10895 10896 10898 10900 10904 10908 10912 10915
10593 10583 10576 10570 10565 10561 10557 10555 10553 10551 10551 10551 10551 10552 10553 10554 10556 10557 10558 10561 10563 10565 10566 10568 10569 10571 10575 10579 10583 10587 10590 10593 10596 10598 10602 10605 10609 10614 10617 10618 10619 10621 10625 10630 10636 10644 10652 10657 10658 10659 10667 10679 10687 10694 10705 10715 10722 10728 10733 10740 10749 10757 10763 10769 10775 10781 10789 10797 10805 10814 10821 10828 10835 10843 10852 10861 10868 10874 10880 10885 10889 10891 10893 10896 10898 10901 10906 10910
10592 10582 10575 10569 10564 10559 10555 10553 10550 10549 10549 10548 10548 10549 10549 10550 10552 10553 10555 10557 10559 10560 10561 10562 10564 10567 10570 10574 10578 10581 10584 10587 10590 10592 10595 10598 10602 10606 10609 10610 10611 10614 10619 10624 10628 10634 10641 10646 10648 10650 10657 10668 10677 10684 10692 10702 10710 10718 10723 10730 10739 10746 10751 10759 10764 10770 10780 10789 10796 10805 10813 10820 10828 10835 10842 10851 10858 10863 10871 10877 10881 10885 10889 10891 10892 10895 10899 10905
10591 10583 10575 10569 10563 10558 10554 10551 10549 10547 10546 10546 10546 10546 10547 10548 10549 10550 10551 10553 10554 10556 10557 10559 10561 10563 10565 10567 10571 10575 10577 10580 10583 10585 10587 10590 10594 10598 10600 10602 10604 10608 10612 10616 10618 10623 10630 10635 10638 10641 10647 10656 10665 10672 10679 10688 10697 10706 10712 10718 10727 10734 10739 10746 10752 10760 10771 10779 10786 10796 10805 10810 10819 10827 10833 10840 10847 10854 10862 10868 10873 10878 10882 10886 10888 10890 10893 10897
10590 10583 10576 10569 10563 10558 10554 10550 10548 10546 10545 10544 10543 10543 10544 10545 10546 10547 10548 10549 10550 10552 10554 10555 10557 10558 10559 10561 10564 10567 10570 10572 10575 10578 10581 10583 10586 10589 10592 10595 10597 10601 10604 10606 10608 10613 10619 10624 10629 10633 10636 10642 10652 10660 10668 10676 10685 10693 10699 10705 10712 10719 10724 10730 10739 10748 10759 10769 10777 10788 10796 10801 10810 10819 10824 10830 10837 10845 10853 10859 10864 10870 10875 10879 10884 10886 10888 10890
10589 10582 10575 10568 10562 10558 10554 10550 10547 10545 10544 10542 10541 10541 10542 10542 10543 10544 10545 10545 10547 10548 10550 10551 10552 10553 10554 10556 10558 10561 10563 10566 10569 10571 10574 10577 10579 10581 10585 10587 10589 10592 10595 10597 10600 10603 10609 10615 10619 10623 10626 10630 10638 10648 10656 10664 10672 10679 10685 10690 10695 10701 10708 10715 10726 10738 10749 10759 10768 10779 10786 10791 10798 10807 10814 10821 10828 10836 10844 10850 10855 10861 10867 10872 10877 10881 10884 10886
10588 10580 10574 10569 10563 10557 10553 10549 10546 10544 10542 10541 10540 10540 10539 10540 10540 10541 10542 10543 10543 10545 10546 10547 10548 10549 10550 10552 10554 10556 10558 10560 10562 10565 10567 10570 10572 10574 10577 10579 10580 10583 10586 10589 10593 10595 10599 10605 10609 10612 10616 10619 10626 10635 10644 10651 10657 10662 10668 10673 10679 10686 10696 10707 10717 10728 10739 10748 10757 10766 10773 10779 10788 10797 10805 10813 10819 10827 10836 10842 10847 10852 10858 10864 10870 10875 10879 10882
10587 10579 10574 10568 10564 10559 10553 10549 10546 10543 10542 10540 10539 10538 10538 10537 10538 10538 10539 10539 10540 10541 10542 10543 10544 10545 10546 10548 10549 10551 10552 10554 10556 10558 10561 10563 10565 10566 10569 10571 10572 10574 10577 10580 10584 10586 10589 10594 10598 10602 10606 10610 10614 10622 10630 10637 10643 10646 10652 10659 10666 10675 10687 10698 10707 10717 10726 10736 10745 10752 10758 10769 10780 10787 10795 10804 10811 10818 10826 10833 10838 10843 10848 10855 10862 10868 10873 10877
10586 10579 10572 10567 10563 10559 10555 10550 10546 10543 10541 10539 10538 10537 10536 10535 10535 10535 10536 10536 10537 10537 10538 10539 10540 10540 10541 10542 10544 10545 10547 10548 10550 10552 10554 10556 10558 10559 10562 10563 10565 10566 10568 10571 10574 10577 10580 10584 10588 10592 10595 10599 10604 10608 10615 10623 10628 10631 10637 10647 10655 10663 10674 10685 10695 10704 10713 10723 10731 10736 10745 10760 10772 10778 10784 10794 10802 10808 10814 10822 10829 10834 10839 10846 10853 10860 10865 10870